Regional Weather Roundup
Issued by NWS Northern Indiana

Home | Current Version | Previous Version | Graphics & Text | Print | Product List | Glossary On
Versions: 1 2 3 4 5 6 7 8 9 10 11 12 13 14 15 16 17 18 19 20 21 22 23 24 25 26 27 28 29 30 31 32 33 34 35 36 37 38 39 40 41 42 43 44 45 46 47 48 49 50
000
ASUS43 KIWX 270600
RWRIWX

KIWX WEATHER ROUNDUP
NATIONAL WEATHER SERVICE NORTHERN INDIANA
100 AM EST TUE JAN 27 2015

NOTE: "FAIR" INDICATES FEW OR NO CLOUDS BELOW 12,000 FEET WITH NO
SIGNIFICANT WEATHER AND/OR OBSTRUCTIONS TO VISIBILITY.

* THESE STATIONS ARE NOT UNDER NWS QUALITY CONTROL. THEY ALSO MAY NOT
  REPORT WEATHER SUCH AS PRECIPITATION OR FOG.

INZ001>027-270700-
NORTHERN INDIANA

CITY           SKY/WX    TMP DP  RH WIND       PRES   REMARKS
SOUTH BEND     CLOUDY    24  15  68 E6        29.94S WCI  17
6HR MIN TEMP:  24; 6HR MAX TEMP:  24;

GOSHEN         CLOUDY    22  14  71 E3        29.93S
6HR MIN TEMP:  20; 6HR MAX TEMP:  22;

ANGOLA*        MOCLDY    18  10  73 CALM      29.92F
FORT WAYNE     CLOUDY    19  13  77 CALM      29.94F
6HR MIN TEMP:  17; 6HR MAX TEMP:  19;


$$
INZ028>050-270700-
CENTRAL INDIANA

CITY           SKY/WX    TMP DP  RH WIND       PRES   REMARKS
LAFAYETTE      CLOUDY    26  24  92 CALM      29.91F
6HR MIN TEMP:  26; 6HR MAX TEMP:  28; 6HR PCP: TRACE;

KOKOMO*        CLOUDY    23  18  80 SE6       29.92F WCI  16
6HR MIN TEMP:  18; 6HR MAX TEMP:  23;

MUNCIE*        CLOUDY    21  14  74 E7        29.92F WCI  12
6HR MIN TEMP:  18; 6HR MAX TEMP:  22;

INDIANAPOLIS   FLURRIES  25  23  92 W3        29.91S
6HR MIN TEMP:  25; 6HR MAX TEMP:  26; 6HR PCP: TRACE;


$$
MIZ043>046-050>051-056>058-064>065-071>073-077>080-270700-
SOUTHWEST LOWER MICHIGAN

CITY           SKY/WX    TMP DP  RH WIND       PRES   REMARKS
BATTLE CREEK   CLOUDY    22   9  57 NE6       29.95R WCI  14
6HR MIN TEMP:  22; 6HR MAX TEMP:  25;

BENTON HARBOR  CLOUDY    22  13  68 E5        29.95S WCI  16
6HR MIN TEMP:  22; 6HR MAX TEMP:  23;

COLDWATER*     CLOUDY    19  12  74 CALM      29.93S
6HR MIN TEMP:  16; 6HR MAX TEMP:  19;

HILLSDALE*     MOCLDY    16   9  75 CALM      29.92S
6HR MIN TEMP:  11; 6HR MAX TEMP:  21;

HOLLAND        CLOUDY    23  11  60 E8        29.97S WCI  14
6HR MIN TEMP:  22; 6HR MAX TEMP:  24;

GRAND RAPIDS   CLOUDY    18  11  74 E7        29.97S WCI   9
6HR MIN TEMP:  18; 6HR MAX TEMP:  21;

KALAMAZOO      CLOUDY    22   8  55 E3        29.94F
6HR MIN TEMP:  21; 6HR MAX TEMP:  23;

STURGIS*       CLOUDY    19  10  68 CALM      29.92F
THREE RIVERS*  MOCLDY    21  10  61 E3        29.94F
6HR MIN TEMP:  19; 6HR MAX TEMP:  22;


$$
OHZ001>008-015>018-024>025-270700-
NORTHWEST OHIO

CITY           SKY/WX    TMP DP  RH WIND       PRES   REMARKS
DEFIANCE       PTCLDY    11   7  84 CALM      29.97R
6HR MIN TEMP:  10; 6HR MAX TEMP:  17;

FINDLAY        PTCLDY     5   0  79 E3        29.94S
6HR MIN TEMP:   2; 6HR MAX TEMP:  14;

TOLEDO EXPRESS FAIR       8   5  87 CALM      29.96F
6HR MIN TEMP:   7; 6HR MAX TEMP:  18;

TOLEDO METCALF CLEAR     10   5  80 CALM      29.97F
6HR MIN TEMP:   9; 6HR MAX TEMP:  16;

LIMA           CLOUDY     9   5  84 S5        29.93F FOG     WCI   1
6HR MIN TEMP:   4; 6HR MAX TEMP:  13;


$$
AND FOR LAKE MICHIGAN COASTAL AND OPEN LAKE BUOY OBSERVATIONS

STATION/POSITION TEMP    WIND        PRES    VSBY  WAVE
                 AIR SEA DIR/SP/G                  HT/PER
                 (F)     (DEG/KT/KT) (MB)    (MI)  (FT/S)
CALUMET HARBOR    26     120/  5/  7   N/A
MICHIGAN CITY     23     120/  7/  9   N/A
SAINT JOSEPH      24      CALM  /  3 1014.6S

$$
&&


USA.gov is the U.S. government's official web portal to all federal, state and local government web resources and services.